DW9501 Weather Reports


Display with metric or nautical units.
time (UTC)temp
F
wind
direction
speed
MPH
gust
MPH
rain 1hr
in
rain 24hr
in
rain mn
in
humidity
%
barometer
mb
20260510071148 46 289 1.0 6.0 0.00 0.00 0.00 62 1009.5
20260510070152 47 250 2.0 6.0 0.00 0.00 0.00 61 1009.3
20260510065145 48 264 2.0 6.0 0.00 0.00 0.00 59 1009.2
20260510064128 48 257 1.0 4.0 0.00 0.00 0.00 59 1009.1
20260510063131 48 248 1.0 4.0 0.00 0.00 0.00 59 1009.0
20260510060939 49 249 0.0 3.0 0.00 0.00 0.00 62 1008.8
20260510055936 49 259 0.0 3.0 0.00 0.00 0.00 62 1008.8
20260510054924 49 269 0.0 3.0 0.00 0.00 0.00 63 1008.4
20260510053855 50 255 0.0 3.0 0.00 0.00 0.00 63 1008.3
20260510052908 50 255 0.0 3.0 0.00 0.00 0.00 63 1008.2
20260510051841 50 250 0.0 2.0 0.00 0.00 0.00 63 1008.2
20260510050842 50 272 0.0 0.0 0.00 0.00 0.00 62 1008.0
20260510045809 50 252 0.0 3.0 0.00 0.00 0.00 63 1008.3
20260510044751 51 261 0.0 0.0 0.00 0.00 0.00 64 1007.9
20260510043807 51 244 0.0 2.0 0.00 0.00 0.00 64 1007.7
20260510042815 51 255 0.0 2.0 0.00 0.00 0.00 63 1007.7
20260510041755 51 252 0.0 3.0 0.00 0.00 0.00 63 1007.4
20260510040733 51 237 0.0 4.0 0.00 0.00 0.00 63 1007.4
20260510035732 51 256 0.0 4.0 0.00 0.00 0.00 66 1007.3
20260510034740 51 276 0.0 1.0 0.00 0.00 0.00 68 1007.2
20260510033715 51 259 0.0 2.0 0.00 0.00 0.00 67 1007.0
20260510032652 51 276 0.0 3.0 0.00 0.00 0.00 67 1006.9
20260510031649 52 247 0.0 2.0 0.00 0.00 0.00 65 1006.6
20260510030632 52 215 0.0 3.0 0.00 0.00 0.00 67 1006.5
20260510025605 53 264 0.0 3.0 0.00 0.00 0.00 74 1006.7
20260510024625 53 250 0.0 2.0 0.00 0.00 0.00 75 1006.6
20260510023609 54 312 0.0 5.0 0.00 0.00 0.00 78 1006.7
20260510021539 54 264 0.0 2.0 0.00 0.00 0.00 88 1006.2
20260510020526 54 254 0.0 0.0 0.00 0.00 0.00 88 1006.0
20260510015452 54 250 0.0 1.0 0.00 0.00 0.00 88 1005.7
20260510014459 53 252 0.0 1.0 0.00 0.00 0.00 88 1005.5
20260510013503 53 239 0.0 0.0 0.00 0.00 0.00 89 1005.2
20260510011402 53 220 0.0 0.0 0.00 0.00 0.00 88 1004.5
20260510010337 54 221 0.0 0.0 0.00 0.00 0.00 88 1004.3
20260510004158 54 311 0.0 0.0 0.00 0.00 0.00 87 1004.0
20260510002012 55 219 0.0 3.0 0.00 0.00 0.00 86 1003.7
20260510001001 55 279 0.0 2.0 0.00 0.00 0.00 84 1003.8
20260509235933 55 245 0.0 1.0 0.00 0.00 0.00 83 1003.5
20260509234938 55 222 0.0 1.0 0.00 0.00 0.00 85 1003.4
20260509233925 56 210 0.0 4.0 0.00 0.00 0.00 82 1003.5
20260509231801 56 225 2.0 9.0 0.00 0.00 0.00 81 1002.6
20260509224516 56 196 2.0 7.0 0.00 0.00 0.00 79 1002.6
20260509223512 55 217 0.0 6.0 0.00 0.00 0.00 82 1002.6
20260509222534 55 226 1.0 6.0 0.00 0.00 0.00 84 1002.6
20260509221527 55 215 2.0 12.0 0.00 0.00 0.00 84 1002.5
20260509220500 55 157 3.0 12.0 0.00 0.00 0.00 83 1002.5
20260509214316 57 213 1.0 6.0 0.00 0.00 0.00 83 1002.9
20260509213312 58 241 0.0 6.0 0.00 0.00 0.00 80 1002.7
20260509212305 58 167 1.0 7.0 0.00 0.00 0.00 77 1002.8
20260509211323 59 229 2.0 7.0 0.00 0.00 0.00 75 1002.9
20260509205158 60 168 0.0 7.0 0.00 0.00 0.00 73 1002.2
20260509203045 60 201 0.0 7.0 0.00 0.00 0.00 71 1002.4
20260509202104 60 231 0.0 6.0 0.00 0.00 0.00 71 1002.6
20260509201042 60 74 0.0 6.0 0.00 0.00 0.00 72 1002.5
20260509200028 59 177 0.0 3.0 0.00 0.00 0.00 72 1003.0
20260509195007 59 183 0.0 5.0 0.00 0.00 0.00 73 1003.0
20260509193937 59 84 0.0 5.0 0.00 0.00 0.00 72 1002.9
20260509192943 59 181 0.0 5.0 0.00 0.00 0.00 71 1003.3
20260509191954 60 199 1.0 5.0 0.00 0.00 0.00 70 1003.4
20260509190932 60 115 0.0 2.0 0.00 0.00 0.00 71 1003.4
20260509184804 61 168 0.0 0.0 0.00 0.00 0.00 72 1003.5
20260509183738 61 219 1.0 10.0 0.00 0.00 0.00 70 1003.6
20260509182725 62 65 0.0 4.0 0.00 0.00 0.00 70 1003.6
20260509181723 62 222 0.0 8.0 0.00 0.00 0.00 69 1003.7
20260509175620 62 160 1.0 6.0 0.00 0.00 0.00 67 1003.8
20260509174626 62 198 0.0 5.0 0.00 0.00 0.00 68 1004.1
20260509173554 62 65 1.0 5.0 0.00 0.00 0.00 69 1004.2
20260509172610 62 181 0.0 4.0 0.00 0.00 0.00 69 1004.4
20260509171627 62 186 0.0 3.0 0.00 0.00 0.00 71 1004.8
20260509165433 61 217 0.0 6.0 0.00 0.00 0.00 71 1005.1
20260509164410 60 201 0.0 2.0 0.00 0.00 0.00 74 1005.0
20260509163344 59 238 1.0 6.0 0.00 0.00 0.00 74 1005.1
20260509161211 58 205 1.0 8.0 0.00 0.00 0.00 79 1005.4
20260509160147 57 243 1.0 8.0 0.00 0.00 0.00 81 1005.6
20260509150606 54 262 0.0 0.0 0.00 0.00 0.00 87 1006.2
20260509145608 53 75 0.0 0.0 0.00 0.00 0.00 86 1006.1
20260509144616 53 165 0.0 1.0 0.00 0.00 0.00 86 1006.2
20260509143604 54 58 0.0 1.0 0.00 0.00 0.00 85 1006.4
20260509142626 54 227 0.0 3.0 0.00 0.00 0.00 85 1006.6
20260509141646 54 174 0.0 0.0 0.00 0.00 0.00 84 1006.6
20260509140628 54 236 0.0 3.0 0.00 0.00 0.00 84 1006.5
20260509134512 55 203 0.0 1.0 0.00 0.00 0.00 80 1006.8
20260509133450 54 153 0.0 0.0 0.00 0.00 0.00 77 1006.7
20260509132505 53 42 0.0 2.0 0.00 0.00 0.00 75 1006.9
20260509131441 53 66 0.0 5.0 0.00 0.00 0.00 74 1006.9
20260509130408 53 54 0.0 1.0 0.00 0.00 0.00 76 1007.0
20260509125418 52 51 0.0 0.0 0.00 0.00 0.00 76 1007.0
20260509124422 52 59 0.0 3.0 0.00 0.00 0.00 73 1007.1
20260509123441 51 177 0.0 0.0 0.00 0.00 0.00 72 1007.2
20260509121311 49 68 0.0 0.0 0.00 0.00 0.00 71 1007.2
20260509120302 48 63 0.0 1.0 0.00 0.00 0.00 72 1007.1
20260509115308 47 63 0.0 2.0 0.00 0.00 0.00 72 1007.1
20260509114323 46 60 0.0 0.0 0.00 0.00 0.00 74 1007.2
20260509113317 46 61 0.0 1.0 0.00 0.00 0.00 75 1007.2
20260509112337 44 36 0.0 0.0 0.00 0.00 0.00 77 1007.2
20260509111305 43 44 0.0 0.0 0.00 0.00 0.00 80 1007.3
20260509110256 42 44 0.0 0.0 0.00 0.00 0.00 82 1007.2
20260509105238 41 44 0.0 0.0 0.00 0.00 0.00 83 1007.3
20260509104211 41 44 0.0 0.0 0.00 0.00 0.00 85 1007.4
20260509103153 40 44 0.0 0.0 0.00 0.00 0.00 85 1007.3
20260509102128 40 44 0.0 0.0 0.00 0.00 0.00 85 1007.3
20260509100002 40 5 0.0 0.0 0.00 0.00 0.00 85 1007.4
20260509095025 39 5 0.0 0.0 0.00 0.00 0.00 86 1007.4
20260509093951 39 5 0.0 0.0 0.00 0.00 0.00 87 1007.6
20260509091830 40 5 0.0 0.0 0.00 0.00 0.00 86 1007.6
20260509090835 40 5 0.0 0.0 0.00 0.00 0.00 85 1007.6
20260509085808 40 5 0.0 0.0 0.00 0.00 0.00 85 1007.7
20260509084734 40 5 0.0 0.0 0.00 0.00 0.00 84 1007.7
20260509082528 40 5 0.0 0.0 0.00 0.00 0.00 84 1007.8
20260509081454 40 5 0.0 0.0 0.00 0.00 0.00 84 1007.8
20260509075309 40 5 0.0 0.0 0.00 0.00 0.00 85 1007.8
20260509074252 40 5 0.0 0.0 0.00 0.00 0.00 85 1007.8
20260509073311 40 5 0.0 0.0 0.00 0.00 0.00 85 1007.8
20260509072301 40 5 0.0 0.0 0.00 0.00 0.00 85 1008.0